When you browse on this site, cookies collect data to enhance your experience and personalize the content and advertising you see.
Visit our Privacy Policy to learn more. By continuing to use the site, you agree to this use of cookies and data.
  • en France
  • Liste des pays
  • À 7 jours
  • Température de l'eau
  • Carte satellitaire
  • Carte météo
  • Widgets météo
  • user-avatar
    Se connecter

    Météo par heure à Xiangcheng

    Ce jour, 18 Juillet, Jeudi

    Heure Température Précipitation Vent Pression Humidité
    00:00 +26°C° 0 mm 2 m/s 747 mmHg 76%
    01:00 +26°C° 0 mm 2 m/s 747 mmHg 75%
    02:00 +26°C° 0 mm 2 m/s 746 mmHg 75%
    03:00 +26°C° 0 mm 2 m/s 746 mmHg 74%
    04:00 +26°C° 0 mm 2 m/s 746 mmHg 73%
    05:00 +25°C° 0 mm 2 m/s 746 mmHg 72%
    06:00 +26°C° 0 mm 2 m/s 746 mmHg 70%
    07:00 +27°C° 0 mm 2 m/s 746 mmHg 69%
    08:00 +28°C° 0 mm 2 m/s 747 mmHg 68%
    09:00 +29°C° 0 mm 2 m/s 747 mmHg 65%
    10:00 +31°C° 0 mm 3 m/s 747 mmHg 62%
    11:00 +33°C° 0 mm 3 m/s 747 mmHg 60%
    12:00 +33°C° 0 mm 3 m/s 746 mmHg 57%
    13:00 +34°C° 0 mm 3 m/s 745 mmHg 55%
    14:00 +34°C° 0 mm 4 m/s 746 mmHg 51%
    15:00 +35°C° 0 mm 4 m/s 745 mmHg 48%
    16:00 +36°C° 0 mm 4 m/s 745 mmHg 46%
    17:00 +36°C° 0 mm 4 m/s 744 mmHg 43%
    18:00 +35°C° 0 mm 3 m/s 744 mmHg 45%
    19:00 +32°C° 0 mm 2 m/s 744 mmHg 47%
    20:00 +31°C° 0 mm 1 m/s 744 mmHg 50%
    21:00 +30°C° 0 mm 1 m/s 745 mmHg 53%
    22:00 +29°C° 0 mm 1 m/s 745 mmHg 57%
    23:00 +29°C° 0 mm 1 m/s 745 mmHg 60%

    Demain, 19 Juillet, Vendredi

    Heure Température Précipitation Vent Pression Humidité
    00:00 +28°C° 0 mm 1 m/s 745 mmHg 62%
    01:00 +28°C° 0 mm 1 m/s 745 mmHg 63%
    02:00 +28°C° 0 mm 1 m/s 745 mmHg 65%
    03:00 +27°C° 0 mm 1 m/s 745 mmHg 67%
    04:00 +27°C° 0 mm 1 m/s 745 mmHg 68%
    05:00 +26°C° 0 mm 1 m/s 744 mmHg 70%
    06:00 +28°C° 0 mm 1 m/s 745 mmHg 67%
    07:00 +29°C° 0 mm 1 m/s 745 mmHg 64%
    08:00 +30°C° 0 mm 1 m/s 745 mmHg 61%
    09:00 +32°C° 0 mm 2 m/s 745 mmHg 56%
    10:00 +35°C° 0 mm 2 m/s 746 mmHg 50%
    11:00 +36°C° 0 mm 2 m/s 746 mmHg 44%
    12:00 +37°C° 0 mm 3 m/s 745 mmHg 41%
    13:00 +38°C° 0 mm 3 m/s 744 mmHg 37%
    14:00 +40°C° 0 mm 3 m/s 743 mmHg 34%
    15:00 +40°C° 0 mm 3 m/s 743 mmHg 33%
    16:00 +40°C° 0 mm 3 m/s 743 mmHg 32%
    17:00 +40°C° 0 mm 3 m/s 742 mmHg 31%
    18:00 +38°C° 0 mm 2 m/s 742 mmHg 35%
    19:00 +36°C° 0 mm 2 m/s 743 mmHg 40%
    20:00 +33°C° 0 mm 1 m/s 743 mmHg 44%
    21:00 +32°C° 0 mm 2 m/s 743 mmHg 51%
    22:00 +31°C° 0 mm 3 m/s 744 mmHg 59%
    23:00 +30°C° 0 mm 4 m/s 744 mmHg 66%

    Après-demain, 20 Juillet, Samedi

    Heure Température Précipitation Vent Pression Humidité
    00:00 +29°C° 0 mm 3 m/s 744 mmHg 68%
    01:00 +29°C° 0 mm 2 m/s 744 mmHg 71%
    02:00 +28°C° 0 mm 1 m/s 744 mmHg 73%
    03:00 +28°C° 0 mm 1 m/s 743 mmHg 74%
    04:00 +28°C° 0 mm 1 m/s 743 mmHg 74%
    05:00 +25°C° 0 mm 0 m/s 743 mmHg 75%
    06:00 +27°C° 0 mm 0 m/s 744 mmHg 71%
    07:00 +30°C° 0 mm 1 m/s 744 mmHg 66%
    08:00 +31°C° 0 mm 1 m/s 745 mmHg 61%
    09:00 +33°C° 0 mm 1 m/s 744 mmHg 56%
    10:00 +35°C° 0 mm 1 m/s 744 mmHg 50%
    11:00 +37°C° 0 mm 2 m/s 744 mmHg 44%
    12:00 +39°C° 0 mm 2 m/s 744 mmHg 41%
    13:00 +40°C° 0 mm 2 m/s 743 mmHg 37%
    14:00 +41°C° 0 mm 2 m/s 742 mmHg 33%
    15:00 +42°C° 0 mm 3 m/s 742 mmHg 34%
    16:00 +40°C° 0 mm 3 m/s 742 mmHg 34%
    17:00 +40°C° 0 mm 3 m/s 741 mmHg 35%
    18:00 +39°C° 0 mm 3 m/s 742 mmHg 39%
    19:00 +37°C° 0 mm 3 m/s 742 mmHg 43%
    20:00 +35°C° 0 mm 3 m/s 742 mmHg 47%
    21:00 +35°C° 0 mm 3 m/s 743 mmHg 52%
    22:00 +34°C° 0 mm 3 m/s 743 mmHg 56%
    23:00 +33°C° 0 mm 3 m/s 743 mmHg 60%

    21 Juillet, Dimanche

    Heure Température Précipitation Vent Pression Humidité
    00:00 +33°C° 0 mm 3 m/s 743 mmHg 61%
    01:00 +31°C° 0 mm 2 m/s 743 mmHg 63%
    02:00 +30°C° 0 mm 1 m/s 743 mmHg 65%
    03:00 +30°C° 0 mm 1 m/s 743 mmHg 66%
    04:00 +30°C° 0 mm 1 m/s 743 mmHg 68%
    05:00 +29°C° 0 mm 1 m/s 743 mmHg 69%
    06:00 +31°C° 0 mm 1 m/s 743 mmHg 65%
    07:00 +32°C° 0 mm 1 m/s 744 mmHg 61%
    08:00 +34°C° 0 mm 2 m/s 744 mmHg 57%
    09:00 +36°C° 0 mm 2 m/s 744 mmHg 52%
    10:00 +38°C° 0 mm 3 m/s 744 mmHg 47%
    11:00 +39°C° 0 mm 3 m/s 744 mmHg 42%
    12:00 +40°C° 0 mm 3 m/s 743 mmHg 41%
    13:00 +41°C° 0 mm 4 m/s 743 mmHg 40%
    14:00 +42°C° 0 mm 4 m/s 742 mmHg 38%
    15:00 +41°C° 0 mm 4 m/s 742 mmHg 39%
    16:00 +41°C° 0 mm 4 m/s 741 mmHg 39%
    17:00 +40°C° 0 mm 3 m/s 741 mmHg 39%
    18:00 +38°C° 0 mm 3 m/s 741 mmHg 43%
    19:00 +37°C° 0 mm 3 m/s 741 mmHg 48%
    20:00 +36°C° 0 mm 2 m/s 741 mmHg 52%
    21:00 +35°C° 0 mm 2 m/s 742 mmHg 54%
    22:00 +35°C° 0 mm 2 m/s 742 mmHg 57%
    23:00 +34°C° 0 mm 2 m/s 743 mmHg 59%

    22 Juillet, Lundi

    Heure Température Précipitation Vent Pression Humidité
    00:00 +34°C° 0.1 mm 2 m/s 742 mmHg 63%
    01:00 +32°C° 0.1 mm 2 m/s 742 mmHg 67%
    02:00 +32°C° 0.1 mm 2 m/s 742 mmHg 71%
    03:00 +31°C° 0.1 mm 2 m/s 741 mmHg 72%
    04:00 +31°C° 0.1 mm 2 m/s 741 mmHg 73%
    05:00 +31°C° 0.1 mm 2 m/s 741 mmHg 75%
    06:00 +32°C° 0 mm 2 m/s 741 mmHg 72%
    07:00 +32°C° 0 mm 2 m/s 742 mmHg 69%
    08:00 +34°C° 0 mm 2 m/s 742 mmHg 66%
    09:00 +36°C° 0.5 mm 2 m/s 742 mmHg 60%
    10:00 +37°C° 0.5 mm 2 m/s 742 mmHg 55%
    11:00 +39°C° 0.5 mm 2 m/s 741 mmHg 50%
    12:00 +39°C° 0.6 mm 2 m/s 741 mmHg 49%
    13:00 +39°C° 0.6 mm 2 m/s 741 mmHg 49%
    14:00 +39°C° 0.6 mm 2 m/s 740 mmHg 49%
    15:00 +37°C° 1.1 mm 3 m/s 740 mmHg 57%
    16:00 +36°C° 1.1 mm 3 m/s 739 mmHg 65%
    17:00 +34°C° 1.1 mm 3 m/s 739 mmHg 73%
    18:00 +33°C° 1 mm 3 m/s 739 mmHg 77%
    19:00 +31°C° 1 mm 2 m/s 740 mmHg 82%
    20:00 +31°C° 1 mm 2 m/s 740 mmHg 86%
    21:00 +30°C° 0.9 mm 2 m/s 740 mmHg 88%
    22:00 +30°C° 0.9 mm 2 m/s 740 mmHg 90%
    23:00 +29°C° 0.9 mm 2 m/s 741 mmHg 93%

    23 Juillet, Mardi

    Heure Température Précipitation Vent Pression Humidité
    00:00 +29°C° 1.1 mm 2 m/s 740 mmHg 93%
    01:00 +29°C° 1.1 mm 1 m/s 740 mmHg 94%
    02:00 +29°C° 1.1 mm 1 m/s 740 mmHg 95%
    03:00 +28°C° 1.3 mm 1 m/s 740 mmHg 95%
    04:00 +28°C° 1.3 mm 1 m/s 740 mmHg 96%
    05:00 +28°C° 1.3 mm 1 m/s 740 mmHg 96%
    06:00 +28°C° 2.4 mm 1 m/s 740 mmHg 95%
    07:00 +28°C° 2.4 mm 1 m/s 741 mmHg 95%
    08:00 +28°C° 2.4 mm 1 m/s 741 mmHg 94%
    09:00 +30°C° 0.7 mm 1 m/s 741 mmHg 87%
    10:00 +31°C° 0.7 mm 1 m/s 741 mmHg 79%
    11:00 +33°C° 0.7 mm 1 m/s 741 mmHg 71%
    12:00 +34°C° 0 mm 1 m/s 741 mmHg 66%
    13:00 +36°C° 0 mm 2 m/s 740 mmHg 61%
    14:00 +37°C° 0 mm 2 m/s 740 mmHg 56%
    15:00 +37°C° 0 mm 2 m/s 740 mmHg 58%
    16:00 +36°C° 0 mm 2 m/s 740 mmHg 60%
    17:00 +36°C° 0 mm 3 m/s 739 mmHg 62%
    18:00 +35°C° 0.1 mm 2 m/s 739 mmHg 66%
    19:00 +34°C° 0.1 mm 2 m/s 740 mmHg 70%
    20:00 +32°C° 0.1 mm 2 m/s 740 mmHg 74%
    21:00 +32°C° 0.1 mm 2 m/s 740 mmHg 76%
    22:00 +31°C° 0.1 mm 2 m/s 741 mmHg 77%
    23:00 +31°C° 0.1 mm 1 m/s 741 mmHg 79%
    Voir plus